Time,TemperatureF,DewpointF,PressureIn,WindDirection,WindDirectionDegrees,WindSpeedMPH,WindSpeedGustMPH,Humidity,HourlyPrecipIn,Conditions,Clouds,dailyrainin,SoftwareType,DateUTC
2013-06-05 00:12:00,68.0,56.0,30.06,NW,310,11.0,-999.0,65,-99.99,,,-99.99,,2013-06-05 04:12:00,
2013-06-05 00:22:00,68.0,56.0,30.06,NW,310,11.0,-999.0,65,-99.99,,,-99.99,,2013-06-05 04:22:00,
2013-06-05 01:12:00,66.0,57.0,30.08,NNE,20,7.0,-999.0,72,-99.99,,,-99.99,,2013-06-05 05:12:00,
2013-06-05 01:22:00,66.0,57.0,30.08,NNE,20,7.0,-999.0,72,-99.99,,,-99.99,,2013-06-05 05:22:00,
2013-06-05 01:31:00,66.0,57.0,30.08,NNE,20,7.0,-999.0,72,-99.99,,,-99.99,,2013-06-05 05:31:00,
2013-06-05 04:21:00,67.0,57.0,30.12,NNE,30,6.0,-999.0,70,-99.99,,,-99.99,,2013-06-05 08:21:00,
2013-06-05 04:31:00,67.0,57.0,30.12,NNE,30,6.0,-999.0,70,-99.99,,,-99.99,,2013-06-05 08:31:00,
2013-06-05 05:11:00,65.0,57.0,30.13,NNE,20,5.0,-999.0,73,-99.99,,,-99.99,,2013-06-05 09:11:00,
2013-06-05 05:21:00,65.0,57.0,30.13,NNE,20,5.0,-999.0,73,-99.99,,,-99.99,,2013-06-05 09:21:00,
2013-06-05 05:32:00,65.0,57.0,30.13,NNE,20,5.0,-999.0,73,-99.99,,,-99.99,,2013-06-05 09:32:00,
2013-06-05 06:12:00,64.0,56.0,30.14,NNW,340,3.0,-999.0,77,-99.99,,,-99.99,,2013-06-05 10:12:00,
2013-06-05 06:22:00,64.0,56.0,30.14,NNW,340,3.0,-999.0,77,-99.99,,,-99.99,,2013-06-05 10:22:00,
2013-06-05 06:33:00,64.0,56.0,30.14,NNW,340,3.0,-999.0,77,-99.99,,,-99.99,,2013-06-05 10:33:00,
2013-06-05 07:11:00,64.0,56.0,30.16,North,350,5.0,-999.0,73,-99.99,,,-99.99,,2013-06-05 11:11:00,
2013-06-05 07:21:00,64.0,56.0,30.16,North,350,5.0,-999.0,73,-99.99,,,-99.99,,2013-06-05 11:21:00,
2013-06-05 07:32:00,64.0,56.0,30.16,North,350,5.0,-999.0,73,-99.99,,,-99.99,,2013-06-05 11:32:00,
2013-06-05 08:00:00,66.0,57.0,30.17,NNE,20,8.0,-999.0,72,-99.99,,,-99.99,,2013-06-05 12:00:00,
2013-06-05 08:11:00,66.0,57.0,30.17,NNE,20,8.0,-999.0,72,-99.99,,,-99.99,,2013-06-05 12:11:00,
2013-06-05 08:21:00,66.0,57.0,30.17,NNE,20,8.0,-999.0,72,-99.99,,,-99.99,,2013-06-05 12:21:00,
2013-06-05 08:31:00,66.0,57.0,30.17,NNE,20,8.0,-999.0,72,-99.99,,,-99.99,,2013-06-05 12:31:00,
2013-06-05 08:52:00,66.0,57.0,30.17,NNE,20,8.0,-999.0,72,-99.99,,,-99.99,,2013-06-05 12:52:00,
2013-06-05 09:00:00,68.0,56.0,30.19,North,10,9.0,-999.0,67,-99.99,,,-99.99,,2013-06-05 13:00:00,
2013-06-05 09:21:00,68.0,56.0,30.19,North,10,9.0,-999.0,67,-99.99,,,-99.99,,2013-06-05 13:21:00,
2013-06-05 09:32:00,68.0,56.0,30.19,North,10,9.0,-999.0,67,-99.99,,,-99.99,,2013-06-05 13:32:00,
2013-06-05 09:42:00,68.0,56.0,30.19,North,10,9.0,-999.0,67,-99.99,,,-99.99,,2013-06-05 13:42:00,
2013-06-05 09:52:00,68.0,56.0,30.19,North,10,9.0,-999.0,67,-99.99,,,-99.99,,2013-06-05 13:52:00,
2013-06-05 10:00:00,69.0,54.0,30.19,North,10,8.0,-999.0,59,-99.99,,,-99.99,,2013-06-05 14:00:00,
2013-06-05 10:11:00,69.0,54.0,30.19,North,10,8.0,-999.0,59,-99.99,,,-99.99,,2013-06-05 14:11:00,
2013-06-05 10:22:00,69.0,54.0,30.19,North,10,8.0,-999.0,59,-99.99,,,-99.99,,2013-06-05 14:22:00,
2013-06-05 10:31:00,69.0,54.0,30.19,North,10,8.0,-999.0,59,-99.99,,,-99.99,,2013-06-05 14:31:00,
2013-06-05 10:42:00,69.0,54.0,30.19,North,10,8.0,-999.0,59,-99.99,,,-99.99,,2013-06-05 14:42:00,
2013-06-05 10:52:00,69.0,54.0,30.19,North,10,8.0,-999.0,59,-99.99,,,-99.99,,2013-06-05 14:52:00,
2013-06-05 11:00:00,72.0,49.0,30.20,NE,50,2.0,-999.0,44,-99.99,,,-99.99,,2013-06-05 15:00:00,
2013-06-05 11:11:00,72.0,49.0,30.20,NE,50,2.0,-999.0,44,-99.99,,,-99.99,,2013-06-05 15:11:00,
2013-06-05 11:33:00,72.0,49.0,30.20,NE,50,2.0,-999.0,44,-99.99,,,-99.99,,2013-06-05 15:33:00,
2013-06-05 11:42:00,72.0,49.0,30.20,NE,50,2.0,-999.0,44,-99.99,,,-99.99,,2013-06-05 15:42:00,
2013-06-05 11:53:00,72.0,49.0,30.20,NE,50,2.0,-999.0,44,-99.99,,,-99.99,,2013-06-05 15:53:00,
2013-06-05 12:00:00,69.0,54.0,30.19,South,190,14.0,-999.0,58,-99.99,,,-99.99,,2013-06-05 16:00:00,
2013-06-05 12:12:00,69.0,54.0,30.19,South,190,14.0,-999.0,58,-99.99,,,-99.99,,2013-06-05 16:12:00,
2013-06-05 12:22:00,69.0,54.0,30.19,South,190,14.0,-999.0,58,-99.99,,,-99.99,,2013-06-05 16:22:00,
2013-06-05 12:31:00,69.0,54.0,30.19,South,190,14.0,-999.0,58,-99.99,,,-99.99,,2013-06-05 16:31:00,
2013-06-05 12:42:00,69.0,54.0,30.19,South,190,14.0,-999.0,58,-99.99,,,-99.99,,2013-06-05 16:42:00,
2013-06-05 12:53:00,69.0,54.0,30.19,South,190,14.0,-999.0,58,-99.99,,,-99.99,,2013-06-05 16:53:00,
2013-06-05 13:00:00,68.0,56.0,30.17,South,190,16.0,-999.0,65,-99.99,,,-99.99,,2013-06-05 17:00:00,
2013-06-05 13:12:00,68.0,56.0,30.17,South,190,16.0,-999.0,65,-99.99,,,-99.99,,2013-06-05 17:12:00,
2013-06-05 13:22:00,68.0,56.0,30.17,South,190,16.0,-999.0,65,-99.99,,,-99.99,,2013-06-05 17:22:00,
2013-06-05 13:32:00,68.0,56.0,30.17,South,190,16.0,-999.0,65,-99.99,,,-99.99,,2013-06-05 17:32:00,
2013-06-05 13:42:00,68.0,56.0,30.17,South,190,16.0,-999.0,65,-99.99,,,-99.99,,2013-06-05 17:42:00,
2013-06-05 13:52:00,68.0,56.0,30.17,South,190,16.0,-999.0,65,-99.99,,,-99.99,,2013-06-05 17:52:00,
2013-06-05 14:00:00,68.0,55.0,30.17,South,190,18.0,-999.0,63,-99.99,,,-99.99,,2013-06-05 18:00:00,
2013-06-05 14:12:00,68.0,55.0,30.17,South,190,18.0,-999.0,63,-99.99,,,-99.99,,2013-06-05 18:12:00,
2013-06-05 14:21:00,68.0,55.0,30.17,South,190,18.0,-999.0,63,-99.99,,,-99.99,,2013-06-05 18:21:00,
2013-06-05 14:32:00,68.0,55.0,30.17,South,190,18.0,-999.0,63,-99.99,,,-99.99,,2013-06-05 18:32:00,
2013-06-05 14:42:00,68.0,55.0,30.17,South,190,18.0,-999.0,63,-99.99,,,-99.99,,2013-06-05 18:42:00,
2013-06-05 14:52:00,68.0,55.0,30.17,South,190,18.0,-999.0,63,-99.99,,,-99.99,,2013-06-05 18:52:00,
2013-06-05 15:00:00,69.0,53.0,30.17,South,190,17.0,-999.0,57,-99.99,,,-99.99,,2013-06-05 19:00:00,
2013-06-05 15:11:00,69.0,53.0,30.17,South,190,17.0,-999.0,57,-99.99,,,-99.99,,2013-06-05 19:11:00,
2013-06-05 15:22:00,69.0,53.0,30.17,South,190,17.0,-999.0,57,-99.99,,,-99.99,,2013-06-05 19:22:00,
2013-06-05 15:32:00,69.0,53.0,30.17,South,190,17.0,-999.0,57,-99.99,,,-99.99,,2013-06-05 19:32:00,
2013-06-05 15:42:00,69.0,53.0,30.17,South,190,17.0,-999.0,57,-99.99,,,-99.99,,2013-06-05 19:42:00,
2013-06-05 15:52:00,69.0,53.0,30.17,South,190,17.0,-999.0,57,-99.99,,,-99.99,,2013-06-05 19:52:00,
2013-06-05 16:00:00,69.0,54.0,30.14,SSW,200,16.0,-999.0,60,-99.99,,,-99.99,,2013-06-05 20:00:00,
2013-06-05 16:11:00,69.0,54.0,30.14,SSW,200,16.0,-999.0,60,-99.99,,,-99.99,,2013-06-05 20:11:00,
2013-06-05 16:22:00,69.0,54.0,30.14,SSW,200,16.0,-999.0,60,-99.99,,,-99.99,,2013-06-05 20:22:00,
2013-06-05 16:31:00,69.0,54.0,30.14,SSW,200,16.0,-999.0,60,-99.99,,,-99.99,,2013-06-05 20:31:00,
2013-06-05 16:42:00,69.0,54.0,30.14,SSW,200,16.0,-999.0,60,-99.99,,,-99.99,,2013-06-05 20:42:00,
2013-06-05 16:52:00,69.0,54.0,30.14,SSW,200,16.0,-999.0,60,-99.99,,,-99.99,,2013-06-05 20:52:00,
2013-06-05 17:00:00,68.0,57.0,30.13,SSW,200,16.0,-999.0,67,-99.99,,,-99.99,,2013-06-05 21:00:00,
2013-06-05 17:11:00,68.0,57.0,30.13,SSW,200,16.0,-999.0,67,-99.99,,,-99.99,,2013-06-05 21:11:00,
2013-06-05 17:21:00,68.0,57.0,30.13,SSW,200,16.0,-999.0,67,-99.99,,,-99.99,,2013-06-05 21:21:00,
2013-06-05 17:33:00,68.0,57.0,30.13,SSW,200,16.0,-999.0,67,-99.99,,,-99.99,,2013-06-05 21:33:00,
2013-06-05 17:43:00,68.0,57.0,30.13,SSW,200,16.0,-999.0,67,-99.99,,,-99.99,,2013-06-05 21:43:00,
2013-06-05 17:53:00,68.0,57.0,30.13,SSW,200,16.0,-999.0,67,-99.99,,,-99.99,,2013-06-05 21:53:00,
2013-06-05 18:00:00,68.0,58.0,30.14,South,190,16.0,-999.0,71,-99.99,,,-99.99,,2013-06-05 22:00:00,
2013-06-05 18:12:00,68.0,58.0,30.14,South,190,16.0,-999.0,71,-99.99,,,-99.99,,2013-06-05 22:12:00,
2013-06-05 18:22:00,68.0,58.0,30.14,South,190,16.0,-999.0,71,-99.99,,,-99.99,,2013-06-05 22:22:00,
2013-06-05 18:32:00,68.0,58.0,30.14,South,190,16.0,-999.0,71,-99.99,,,-99.99,,2013-06-05 22:32:00,
2013-06-05 18:42:00,68.0,58.0,30.14,South,190,16.0,-999.0,71,-99.99,,,-99.99,,2013-06-05 22:42:00,
2013-06-05 18:52:00,68.0,58.0,30.14,South,190,16.0,-999.0,71,-99.99,,,-99.99,,2013-06-05 22:52:00,
2013-06-05 19:00:00,69.0,58.0,30.14,SSW,210,8.0,-999.0,68,-99.99,,,-99.99,,2013-06-05 23:00:00,
2013-06-05 19:11:00,69.0,58.0,30.14,SSW,210,8.0,-999.0,68,-99.99,,,-99.99,,2013-06-05 23:11:00,
2013-06-05 19:21:00,69.0,58.0,30.14,SSW,210,8.0,-999.0,68,-99.99,,,-99.99,,2013-06-05 23:21:00,
2013-06-05 19:32:00,69.0,58.0,30.14,SSW,210,8.0,-999.0,68,-99.99,,,-99.99,,2013-06-05 23:32:00,
2013-06-05 19:41:00,69.0,58.0,30.14,SSW,210,8.0,-999.0,68,-99.99,,,-99.99,,2013-06-05 23:41:00,
2013-06-05 19:52:00,69.0,58.0,30.14,SSW,210,8.0,-999.0,68,-99.99,,,-99.99,,2013-06-05 23:52:00,
2013-06-05 20:00:00,67.0,59.0,30.15,SSW,210,5.0,-999.0,75,-99.99,,,-99.99,,2013-06-06 00:00:00,
2013-06-05 20:11:00,67.0,59.0,30.15,SSW,210,5.0,-999.0,75,-99.99,,,-99.99,,2013-06-06 00:11:00,
2013-06-05 20:21:00,67.0,59.0,30.15,SSW,210,5.0,-999.0,75,-99.99,,,-99.99,,2013-06-06 00:21:00,
2013-06-05 20:32:00,67.0,59.0,30.15,SSW,210,5.0,-999.0,75,-99.99,,,-99.99,,2013-06-06 00:32:00,
2013-06-05 20:42:00,67.0,59.0,30.15,SSW,210,5.0,-999.0,75,-99.99,,,-99.99,,2013-06-06 00:42:00,
2013-06-05 20:51:00,67.0,59.0,30.15,SSW,210,5.0,-999.0,75,-99.99,,,-99.99,,2013-06-06 00:51:00,
2013-06-05 21:00:00,65.0,59.0,30.16,SSW,200,5.0,-999.0,79,-99.99,,,-99.99,,2013-06-06 01:00:00,
2013-06-05 21:11:00,65.0,59.0,30.16,SSW,200,5.0,-999.0,79,-99.99,,,-99.99,,2013-06-06 01:11:00,
2013-06-05 21:21:00,65.0,59.0,30.16,SSW,200,5.0,-999.0,79,-99.99,,,-99.99,,2013-06-06 01:21:00,
2013-06-05 21:32:00,65.0,59.0,30.16,SSW,200,5.0,-999.0,79,-99.99,,,-99.99,,2013-06-06 01:32:00,
2013-06-05 21:42:00,65.0,59.0,30.16,SSW,200,5.0,-999.0,79,-99.99,,,-99.99,,2013-06-06 01:42:00,
2013-06-05 21:52:00,65.0,59.0,30.16,SSW,200,5.0,-999.0,79,-99.99,,,-99.99,,2013-06-06 01:52:00,
2013-06-05 22:00:00,64.0,61.0,30.17,SW,220,5.0,-999.0,87,-99.99,,,-99.99,,2013-06-06 02:00:00,
2013-06-05 22:11:00,64.0,61.0,30.17,SW,220,5.0,-999.0,87,-99.99,,,-99.99,,2013-06-06 02:11:00,
2013-06-05 22:21:00,64.0,61.0,30.17,SW,220,5.0,-999.0,87,-99.99,,,-99.99,,2013-06-06 02:21:00,
2013-06-05 22:32:00,64.0,61.0,30.17,SW,220,5.0,-999.0,87,-99.99,,,-99.99,,2013-06-06 02:32:00,
2013-06-05 22:41:00,64.0,61.0,30.17,SW,220,5.0,-999.0,87,-99.99,,,-99.99,,2013-06-06 02:41:00,
2013-06-05 22:51:00,64.0,61.0,30.17,SW,220,5.0,-999.0,87,-99.99,,,-99.99,,2013-06-06 02:51:00,
2013-06-05 23:00:00,64.0,62.0,30.17,SW,220,5.0,-999.0,90,-99.99,,,-99.99,,2013-06-06 03:00:00,
2013-06-05 23:11:00,64.0,62.0,30.17,SW,220,5.0,-999.0,90,-99.99,,,-99.99,,2013-06-06 03:11:00,
2013-06-05 23:22:00,64.0,62.0,30.17,SW,220,5.0,-999.0,90,-99.99,,,-99.99,,2013-06-06 03:22:00,
2013-06-05 23:33:00,64.0,62.0,30.17,SW,220,5.0,-999.0,90,-99.99,,,-99.99,,2013-06-06 03:33:00,
2013-06-05 23:43:00,64.0,62.0,30.17,SW,220,5.0,-999.0,90,-99.99,,,-99.99,,2013-06-06 03:43:00,
2013-06-05 23:52:00,64.0,62.0,30.17,SW,220,5.0,-999.0,90,-99.99,,,-99.99,,2013-06-06 03:52:00,